Weather History for KADW - September, 2013

Change the Weather History Date:

Saturday, September 7, 2013

  Actual Average Record
Temperature  
Mean Temperature 66 °F -  
Max Temperature 80 °F 78 °F 95 °F (1998)
Min Temperature 53 °F 60 °F 50 °F (2000)
Cooling Degree Days 2    
Growing Degree Days 16 (Base 50)    
Moisture  
Dew Point 57 °F    
Average Humidity 70    
Maximum Humidity 95    
Minimum Humidity 44    
Precipitation  
Precipitation 0.00 in - - ()
Sea Level Pressure  
Sea Level Pressure 30.08 in    
Wind  
Wind Speed 3 mph (SW)    
Max Wind Speed 10 mph    
Max Gust Speed 17 mph    
Visibility 10 miles    
Events      
Averages and records for this station are not official NWS values.
T = Trace of Precipitation, MM = Missing Value Source: NWS Daily Summary

Daily Weather History Graph

Daily Weather History Graph

Search for Another Location

Airport or City:

Trip Planner

Search our weather history database for the weather conditions in past years. The results will help you decide how hot, cold, wet, or windy it might be!

Date:

Astronomy

Sep. 07, 2013 Rise Set
Actual Time 6:42 AM EDT 7:28 PM EDT
Civil Twilight 6:15 AM EDT 7:54 PM EDT
Nautical Twilight 5:43 AM EDT 8:26 PM EDT
Astronomical Twilight 5:10 AM EDT 8:59 PM EDT
Moon 8:52 AM EDT (9/7) 8:27 PM EDT (9/7)
Length of Visible Light 13h 39m
Length of Day
12h 46m
Waxing Crescent, 5% of the Moon is Illuminated
Sep 7
Waxing Crescent
Sep 12
First Quarter
Sep 19
Full
Sep 26
Last Quarter
Oct 4
New

Hourly Weather History & Observations

Time (EDT) Temp. Heat Index Dew Point Humidity Pressure Visibility Wind Dir Wind Speed Gust Speed Precip Events Conditions
12:58 AM 59.2 °F - 51.1 °F 74% 30.17 in 10.0 mi Calm Calm - N/A   Clear
1:58 AM 56.3 °F - 50.9 °F 82% 30.16 in 10.0 mi Calm Calm - N/A   Clear
2:58 AM 54.5 °F - 51.4 °F 89% 30.15 in 10.0 mi Calm Calm - N/A   Clear
3:58 AM 54.0 °F - 51.8 °F 92% 30.14 in 10.0 mi Calm Calm - N/A   Clear
4:58 AM 53.1 °F - 51.1 °F 93% 30.15 in 10.0 mi Calm Calm - N/A   Clear
5:58 AM 54.7 °F - 53.2 °F 95% 30.14 in 10.0 mi SE 1.2 mph - N/A   Clear
6:58 AM 54.1 °F - 52.3 °F 94% 30.14 in 10.0 mi Calm Calm - N/A   Clear
7:58 AM 59.0 °F - 56.8 °F 93% 30.14 in 10.0 mi SSE 1.2 mph - N/A   Clear
8:58 AM 68.9 °F - 55.6 °F 62% 30.14 in 10.0 mi SW 4.6 mph - N/A   Clear
9:58 AM 72.9 °F - 56.5 °F 56% 30.14 in 10.0 mi WSW 9.2 mph - N/A   Clear
10:58 AM 74.8 °F - 57.6 °F 55% 30.13 in 10.0 mi SW 8.1 mph - N/A   Clear
11:58 AM 75.6 °F - 56.7 °F 52% 30.11 in 10.0 mi West 6.9 mph - N/A   Clear
12:58 PM 77.5 °F - 55.9 °F 47% 30.09 in 10.0 mi Variable 5.8 mph - N/A   Clear
1:58 PM 79.0 °F - 55.8 °F 45% 30.07 in 10.0 mi Variable 4.6 mph - N/A   Clear
2:58 PM 80.2 °F 80.4 °F 56.5 °F 44% 30.03 in 10.0 mi WSW 8.1 mph - N/A   Clear
3:58 PM 79.2 °F - 58.5 °F 49% 30.02 in 10.0 mi WSW 10.4 mph 17.3 mph N/A   Scattered Clouds
4:58 PM 78.3 °F - 59.2 °F 52% 30.00 in 10.0 mi SW 10.4 mph - N/A   Partly Cloudy
5:58 PM 77.9 °F - 59.9 °F 54% 30.00 in 10.0 mi SSW 10.4 mph - N/A   Clear
6:58 PM 74.8 °F - 60.4 °F 61% 29.99 in 10.0 mi SW 9.2 mph - N/A   Clear
7:58 PM 71.2 °F - 61.2 °F 70% 29.99 in 10.0 mi SSW 5.8 mph - N/A   Clear
8:58 PM 69.3 °F - 61.0 °F 75% 29.99 in 10.0 mi SSW 5.8 mph - N/A   Clear
9:58 PM 68.4 °F - 61.3 °F 78% 29.98 in 10.0 mi SSW 5.8 mph - N/A   Clear
10:58 PM 67.1 °F - 61.2 °F 81% 29.98 in 10.0 mi SSW 5.8 mph - N/A   Clear
11:58 PM 67.1 °F - 61.7 °F 83% 29.97 in 10.0 mi SW 5.8 mph - N/A   Clear